This is the latest recevied weather packets stored in our database for station/object DC9VQ-13. If no packets are shown the sender has not sent any weather packets the latest 10 day(s).
| Time | Temp. | Humidity | Pressure | Rain* | Wind** | Luminosity | Snow |
|---|---|---|---|---|---|---|---|
| 1777586547 | 11.67° C | 45% | 1027.8 hPa | 0 mm | - | - | - |
| 1777585945 | 11.67° C | 45% | 1027.8 hPa | 0 mm | - | - | - |
| 1777585343 | 11.67° C | 44% | 1027.6 hPa | 0 mm | - | - | - |
| 1777584741 | 12.22° C | 43% | 1027.7 hPa | 0 mm | - | - | - |
| 1777584139 | 12.78° C | 42% | 1027.7 hPa | 0 mm | - | - | - |
| 1777583537 | 12.78° C | 40% | 1027.7 hPa | 0 mm | - | - | - |
| 1777582935 | 13.33° C | 40% | 1027.6 hPa | 0 mm | - | - | - |
| 1777582333 | 13.33° C | 39% | 1027.5 hPa | 0 mm | - | - | - |
| 1777581731 | 13.89° C | 38% | 1027.5 hPa | 0 mm | - | - | - |
| 1777581129 | 13.89° C | 37% | 1027.5 hPa | 0 mm | - | - | - |
| 1777580527 | 14.44° C | 37% | 1027.4 hPa | 0 mm | - | - | - |
| 1777579925 | 14.44° C | 36% | 1027.3 hPa | 0 mm | - | - | - |
| 1777579323 | 15° C | 35% | 1027.4 hPa | 0 mm | - | - | - |
| 1777578721 | 15.56° C | 34% | 1027.3 hPa | 0 mm | - | - | - |
| 1777578119 | 15.56° C | 34% | 1027.3 hPa | 0 mm | - | - | - |
| 1777577516 | 15.56° C | 34% | 1027.2 hPa | 0 mm | - | - | - |
| 1777576919 | 16.11° C | 33% | 1027.1 hPa | 0 mm | - | - | - |
| 1777576313 | 16.67° C | 33% | 1027 hPa | 0 mm | - | - | - |
| 1777575711 | 16.67° C | 32% | 1026.9 hPa | 0 mm | - | - | - |
| 1777575110 | 17.22° C | 31% | 1026.8 hPa | 0 mm | - | - | - |
| 1777574508 | 17.78° C | 31% | 1026.7 hPa | 0 mm | - | - | - |
| 1777573905 | 17.78° C | 30% | 1026.8 hPa | 0 mm | - | - | - |
| 1777573303 | 18.33° C | 29% | 1026.7 hPa | 0 mm | - | - | - |
| 1777572701 | 18.89° C | 29% | 1026.6 hPa | 0 mm | - | - | - |
| 1777572099 | 19.44° C | 28% | 1026.6 hPa | 0 mm | - | - | - |
* Rain latest hour (hover to see other rain measurements)
** Current wind speed in m/s (hover to see current wind gust speed)